Location: Baia Mare
(47.6567°N, 23.5850°E)
Time: 11:21:00

ISS - Pass Details

Date: 26 March 2018
Orbit: 403 x 406 km, 51.6° (Epoch: 23 March)

Event Time Altitude Azimuth Distance (km) Brightness Sun altitude
Rises 21:36:01 0° 243° (WSW) 2,318 0.6 -18.5°
Reaches altitude 10° 21:38:06 10° 243° (WSW) 1,461 -0.5 -18.8°
Maximum altitude 21:41:22 85° 158° (SSE) 412 -4.0 -19.3°
Enters shadow 21:41:25 84° 126° (SE) 413 -4.0 -19.3°
